Location: El Hornillo
(40.2499°N, 5.1036°W)
Time: 20:57:08
(UTC+00:00)

Meteor 2-2 Rocket - Pass Details

Date: 05 August 2024
Orbit: 852 x 927 km, 81.3° (Epoch: 17 September)

Event Time Altitude Azimuth Distance (km) Brightness Sun altitude
Rises 21:44:38 0° 348° (NNW) 3,537 8.4 -21.8°
Reaches altitude 10° 21:47:05 10° 347° (NNW) 2,602 7.6 -22.1°
Maximum altitude 21:53:01 75° 264° (W) 953 4.4 -22.9°
Enters shadow 21:55:27 38° 187° (S) 1,380 4.9 -23.2°
